Time,TemperatureF,DewpointF,PressureIn,WindDirection,WindDirectionDegrees,WindSpeedMPH,WindSpeedGustMPH,Humidity,HourlyPrecipIn,Conditions,Clouds,dailyrainin,SolarRadiationWatts/m^2,SoftwareType,DateUTC
2013-07-05 00:00:00,73.7,58.5,29.76,East,98,0.0,0.0,59,0.00,,,0.00,0,Wunderground v.1.15,2013-07-05 05:00:00,
2013-07-05 00:10:00,73.7,58.5,29.76,East,101,0.0,0.0,59,0.00,,,0.00,0,Wunderground v.1.15,2013-07-05 05:10:00,
2013-07-05 00:20:00,73.5,58.3,29.76,East,101,0.0,0.0,59,0.00,,,0.00,0,Wunderground v.1.15,2013-07-05 05:20:00,
2013-07-05 00:29:00,73.5,58.8,29.76,East,101,0.0,0.0,60,0.00,,,0.00,0,Wunderground v.1.15,2013-07-05 05:29:00,
2013-07-05 00:35:00,73.4,58.7,29.76,East,101,0.0,0.0,60,0.00,,,0.00,0,Wunderground v.1.15,2013-07-05 05:35:00,
2013-07-05 00:40:00,73.5,58.8,29.76,East,101,0.0,0.0,60,0.00,,,0.00,0,Wunderground v.1.15,2013-07-05 05:40:00,
2013-07-05 00:50:00,73.3,58.6,29.76,East,101,0.0,0.0,60,0.00,,,0.00,0,Wunderground v.1.15,2013-07-05 05:50:00,
2013-07-05 01:00:00,73.3,58.6,29.76,SE,128,0.0,0.0,60,0.00,,,0.00,0,Wunderground v.1.15,2013-07-05 06:00:00,
2013-07-05 01:10:00,73.0,58.8,29.76,SE,128,0.0,0.0,61,0.00,,,0.00,0,Wunderground v.1.15,2013-07-05 06:10:00,
2013-07-05 01:20:00,72.7,58.9,29.76,SE,128,0.0,0.0,62,0.00,,,0.00,0,Wunderground v.1.15,2013-07-05 06:20:00,
2013-07-05 01:25:00,72.6,58.8,29.76,SE,128,0.0,0.0,62,0.00,,,0.00,0,Wunderground v.1.15,2013-07-05 06:25:00,
2013-07-05 01:35:00,72.2,58.5,29.76,SE,128,0.0,0.0,62,0.00,,,0.00,0,Wunderground v.1.15,2013-07-05 06:35:00,
2013-07-05 01:40:00,72.1,58.8,29.76,SE,128,0.0,0.0,63,0.00,,,0.00,0,Wunderground v.1.15,2013-07-05 06:40:00,
2013-07-05 01:45:00,71.9,58.6,29.76,SE,128,0.0,0.0,63,0.00,,,0.00,0,Wunderground v.1.15,2013-07-05 06:45:00,
2013-07-05 01:50:00,71.7,58.9,29.76,SE,128,0.0,0.0,64,0.00,,,0.00,0,Wunderground v.1.15,2013-07-05 06:50:00,
2013-07-05 02:00:00,71.5,58.7,29.76,SE,128,0.0,0.0,64,0.00,,,0.00,0,Wunderground v.1.15,2013-07-05 07:00:00,
2013-07-05 02:10:00,71.4,59.0,29.76,SE,128,0.0,0.0,65,0.00,,,0.00,0,Wunderground v.1.15,2013-07-05 07:10:00,
2013-07-05 02:20:00,71.2,58.8,29.76,SE,128,0.0,0.0,65,0.00,,,0.00,0,Wunderground v.1.15,2013-07-05 07:20:00,
2013-07-05 02:25:00,71.1,59.2,29.76,SE,128,0.0,0.0,66,0.00,,,0.00,0,Wunderground v.1.15,2013-07-05 07:25:00,
2013-07-05 02:34:00,70.8,58.9,29.76,SE,128,0.0,0.0,66,0.00,,,0.00,0,Wunderground v.1.15,2013-07-05 07:34:00,
2013-07-05 02:45:00,70.8,58.9,29.76,SE,128,0.0,0.0,66,0.00,,,0.00,0,Wunderground v.1.15,2013-07-05 07:45:00,
2013-07-05 02:55:00,70.8,58.9,29.76,SE,128,0.0,0.0,66,0.00,,,0.00,0,Wunderground v.1.15,2013-07-05 07:55:00,
2013-07-05 03:04:00,70.6,59.1,29.76,SE,128,0.0,0.0,67,0.00,,,0.00,0,Wunderground v.1.15,2013-07-05 08:04:00,
2013-07-05 03:14:00,70.4,58.9,29.76,SE,128,0.0,0.0,67,0.00,,,0.00,0,Wunderground v.1.15,2013-07-05 08:14:00,
2013-07-05 03:20:00,70.3,58.8,29.76,SE,128,0.0,0.0,67,0.00,,,0.00,0,Wunderground v.1.15,2013-07-05 08:20:00,
2013-07-05 03:30:00,70.1,59.0,29.76,SE,128,0.0,0.0,68,0.00,,,0.00,0,Wunderground v.1.15,2013-07-05 08:30:00,
2013-07-05 03:39:00,69.9,58.9,29.76,SE,128,0.0,0.0,68,0.00,,,0.00,0,Wunderground v.1.15,2013-07-05 08:39:00,
2013-07-05 03:49:00,69.7,59.1,29.76,SE,128,0.0,0.0,69,0.00,,,0.00,0,Wunderground v.1.15,2013-07-05 08:49:00,
2013-07-05 04:00:00,69.5,58.9,29.76,SE,128,0.0,0.0,69,0.00,,,0.00,0,Wunderground v.1.15,2013-07-05 09:00:00,
2013-07-05 04:10:00,69.3,59.1,29.76,SE,128,0.0,0.0,70,0.00,,,0.00,0,Wunderground v.1.15,2013-07-05 09:10:00,
2013-07-05 04:20:00,69.1,58.9,29.76,SE,128,0.0,0.0,70,0.00,,,0.00,0,Wunderground v.1.15,2013-07-05 09:20:00,
2013-07-05 04:29:00,68.9,58.7,29.76,SE,128,0.0,0.0,70,0.00,,,0.00,0,Wunderground v.1.15,2013-07-05 09:29:00,
2013-07-05 04:40:00,68.6,58.8,29.76,SE,128,0.0,0.0,71,0.00,,,0.00,0,Wunderground v.1.15,2013-07-05 09:40:00,
2013-07-05 04:50:00,68.5,58.7,29.76,SE,128,0.0,0.0,71,0.00,,,0.00,0,Wunderground v.1.15,2013-07-05 09:50:00,
2013-07-05 04:55:00,68.3,58.5,29.76,SE,128,0.0,0.0,71,0.00,,,0.00,0,Wunderground v.1.15,2013-07-05 09:55:00,
2013-07-05 05:00:00,68.2,58.8,29.76,SE,128,0.0,0.0,72,0.00,,,0.00,0,Wunderground v.1.15,2013-07-05 10:00:00,
2013-07-05 05:10:00,67.9,58.5,29.76,SE,128,0.0,0.0,72,0.00,,,0.00,0,Wunderground v.1.15,2013-07-05 10:10:00,
2013-07-05 05:20:00,67.8,58.8,29.76,SE,128,0.0,0.0,73,0.00,,,0.00,0,Wunderground v.1.15,2013-07-05 10:20:00,
2013-07-05 05:35:00,67.6,58.6,29.76,SE,128,0.0,0.0,73,0.00,,,0.00,0,Wunderground v.1.15,2013-07-05 10:35:00,
2013-07-05 05:45:00,67.4,58.4,29.76,SE,128,0.0,0.0,73,0.00,,,0.00,0,Wunderground v.1.15,2013-07-05 10:45:00,
2013-07-05 05:54:00,67.2,58.6,29.76,SE,128,0.0,0.0,74,0.00,,,0.00,0,Wunderground v.1.15,2013-07-05 10:54:00,
2013-07-05 06:00:00,67.2,58.6,29.76,SE,128,0.0,0.0,74,0.00,,,0.00,0,Wunderground v.1.15,2013-07-05 11:00:00,
2013-07-05 06:10:00,67.1,58.5,29.76,SE,128,0.0,0.0,74,0.00,,,0.00,7,Wunderground v.1.15,2013-07-05 11:10:00,
2013-07-05 06:20:00,67.1,58.9,29.77,SE,128,0.0,0.0,75,0.00,,,0.00,12,Wunderground v.1.15,2013-07-05 11:20:00,
2013-07-05 06:29:00,67.1,58.9,29.76,SE,128,0.0,0.0,75,0.00,,,0.00,19,Wunderground v.1.15,2013-07-05 11:29:00,
2013-07-05 06:35:00,67.1,58.9,29.76,SE,128,0.0,0.0,75,0.00,,,0.00,23,Wunderground v.1.15,2013-07-05 11:35:00,
2013-07-05 06:45:00,67.1,58.9,29.76,SE,128,0.0,0.0,75,0.00,,,0.00,30,Wunderground v.1.15,2013-07-05 11:45:00,
2013-07-05 06:55:00,67.3,59.1,29.76,SE,128,0.0,0.0,75,0.00,,,0.00,37,Wunderground v.1.15,2013-07-05 11:55:00,
2013-07-05 07:04:00,67.4,59.2,29.76,SE,128,0.0,0.0,75,0.00,,,0.00,49,Wunderground v.1.15,2013-07-05 12:04:00,
2013-07-05 07:15:00,67.7,59.5,29.76,SE,128,0.0,0.0,75,0.00,,,0.00,54,Wunderground v.1.15,2013-07-05 12:15:00,
2013-07-05 07:20:00,67.8,59.6,29.76,SE,128,0.0,0.0,75,0.00,,,0.00,56,Wunderground v.1.15,2013-07-05 12:20:00,
2013-07-05 07:29:00,68.0,59.8,29.76,SE,128,0.0,0.0,75,0.00,,,0.00,63,Wunderground v.1.15,2013-07-05 12:29:00,
2013-07-05 07:34:00,68.2,60.0,29.76,SE,128,0.0,0.0,75,0.00,,,0.00,70,Wunderground v.1.15,2013-07-05 12:34:00,
2013-07-05 07:45:00,68.6,60.4,29.76,ESE,110,0.0,0.0,75,0.00,,,0.00,209,Wunderground v.1.15,2013-07-05 12:45:00,
2013-07-05 07:50:00,68.9,60.6,29.76,ESE,109,0.0,0.0,75,0.00,,,0.00,227,Wunderground v.1.15,2013-07-05 12:50:00,
2013-07-05 08:00:00,69.7,61.0,29.76,ESE,109,0.0,0.0,74,0.00,,,0.00,253,Wunderground v.1.15,2013-07-05 13:00:00,
2013-07-05 08:10:00,70.6,61.5,29.76,East,85,0.0,0.0,73,0.00,,,0.00,283,Wunderground v.1.15,2013-07-05 13:10:00,
2013-07-05 08:19:00,71.6,62.1,29.76,East,90,0.0,0.0,72,0.00,,,0.00,288,Wunderground v.1.15,2013-07-05 13:19:00,
2013-07-05 08:24:00,72.0,62.5,29.76,East,100,0.0,0.0,72,0.00,,,0.00,336,Wunderground v.1.15,2013-07-05 13:24:00,
2013-07-05 08:30:00,72.4,62.5,29.77,ESE,107,0.0,0.0,71,0.00,,,0.00,357,Wunderground v.1.15,2013-07-05 13:30:00,
2013-07-05 08:40:00,73.4,63.0,29.77,ESE,107,0.0,0.0,70,0.00,,,0.00,397,Wunderground v.1.15,2013-07-05 13:40:00,
2013-07-05 08:49:00,74.4,63.1,29.77,ESE,117,0.0,0.0,68,0.00,,,0.00,399,Wunderground v.1.15,2013-07-05 13:49:00,
2013-07-05 08:54:00,74.8,63.1,29.77,ESE,117,0.0,0.0,67,0.00,,,0.00,420,Wunderground v.1.15,2013-07-05 13:54:00,
2013-07-05 08:59:00,75.3,63.6,29.77,East,101,0.0,0.0,67,0.00,,,0.00,432,Wunderground v.1.15,2013-07-05 13:59:00,
2013-07-05 09:15:00,76.7,64.5,29.77,ESE,107,0.0,0.0,66,0.00,,,0.00,422,Wunderground v.1.15,2013-07-05 14:15:00,
2013-07-05 09:25:00,77.2,65.0,29.77,ESE,105,0.0,0.0,66,0.00,,,0.00,494,Wunderground v.1.15,2013-07-05 14:25:00,
2013-07-05 09:34:00,77.1,64.4,29.77,ESE,109,0.0,0.0,65,0.00,,,0.00,534,Wunderground v.1.15,2013-07-05 14:34:00,
2013-07-05 09:44:00,78.0,64.8,29.76,East,101,0.0,0.0,64,0.00,,,0.00,585,Wunderground v.1.15,2013-07-05 14:44:00,
2013-07-05 09:55:00,79.3,65.6,29.76,SW,215,0.0,0.0,63,0.00,,,0.00,717,Wunderground v.1.15,2013-07-05 14:55:00,
2013-07-05 10:05:00,79.8,65.6,29.76,SSW,195,0.0,0.0,62,0.00,,,0.00,404,Wunderground v.1.15,2013-07-05 15:05:00,
2013-07-05 10:19:00,79.2,65.5,29.75,WSW,257,0.0,0.0,63,0.00,,,0.00,279,Wunderground v.1.15,2013-07-05 15:19:00,
2013-07-05 10:25:00,79.1,65.4,29.75,SW,235,0.0,2.0,63,0.00,,,0.00,343,Wunderground v.1.15,2013-07-05 15:25:00,
2013-07-05 10:30:00,79.1,65.9,29.75,SW,232,0.0,0.0,64,0.00,,,0.00,274,Wunderground v.1.15,2013-07-05 15:30:00,
2013-07-05 10:40:00,78.8,64.7,29.75,SE,133,0.0,2.0,62,0.00,,,0.00,107,Wunderground v.1.15,2013-07-05 15:40:00,
2013-07-05 10:49:00,78.8,65.1,29.75,SSE,155,0.0,0.0,63,0.00,,,0.00,241,Wunderground v.1.15,2013-07-05 15:49:00,
2013-07-05 10:59:00,79.2,65.1,29.75,SSE,159,0.0,1.0,62,0.00,,,0.00,243,Wunderground v.1.15,2013-07-05 15:59:00,
2013-07-05 11:05:00,79.3,66.1,29.75,East,90,0.0,1.0,64,0.00,,,0.00,232,Wunderground v.1.15,2013-07-05 16:05:00,
2013-07-05 11:15:00,79.0,65.8,29.75,ESE,102,0.0,2.0,64,0.00,,,0.00,186,Wunderground v.1.15,2013-07-05 16:15:00,
2013-07-05 11:25:00,78.3,65.1,29.75,ESE,106,0.0,0.0,64,0.00,,,0.00,195,Wunderground v.1.15,2013-07-05 16:25:00,
2013-07-05 11:34:00,78.7,66.4,29.75,SSW,204,0.0,0.0,66,0.00,,,0.00,139,Wunderground v.1.15,2013-07-05 16:34:00,
2013-07-05 11:40:00,78.6,64.9,29.75,ESE,110,0.0,0.0,63,0.00,,,0.00,156,Wunderground v.1.15,2013-07-05 16:40:00,
2013-07-05 11:50:00,78.8,64.7,29.75,ESE,111,0.0,1.0,62,0.00,,,0.00,251,Wunderground v.1.15,2013-07-05 16:50:00,
2013-07-05 11:55:00,78.9,65.2,29.75,South,183,0.0,1.0,63,0.00,,,0.00,297,Wunderground v.1.15,2013-07-05 16:55:00,
2013-07-05 12:04:00,80.1,66.8,29.75,South,175,0.0,0.0,64,0.00,,,0.00,292,Wunderground v.1.15,2013-07-05 17:04:00,
2013-07-05 12:10:00,80.4,67.1,29.75,South,173,0.0,0.0,64,0.00,,,0.00,202,Wunderground v.1.15,2013-07-05 17:10:00,
2013-07-05 12:15:00,80.0,65.8,29.74,SSE,167,0.0,0.0,62,0.00,,,0.00,156,Wunderground v.1.15,2013-07-05 17:15:00,
2013-07-05 12:25:00,79.4,65.2,29.74,South,176,0.0,0.0,62,0.00,,,0.00,148,Wunderground v.1.15,2013-07-05 17:25:00,
2013-07-05 12:35:00,79.5,64.4,29.74,SSW,195,0.0,1.0,60,0.00,,,0.00,142,Wunderground v.1.15,2013-07-05 17:35:00,
2013-07-05 12:44:00,79.4,65.2,29.74,SSW,198,0.0,0.0,62,0.00,,,0.00,181,Wunderground v.1.15,2013-07-05 17:44:00,
2013-07-05 12:50:00,79.6,65.0,29.74,South,178,0.0,0.0,61,0.00,,,0.00,230,Wunderground v.1.15,2013-07-05 17:50:00,
2013-07-05 13:00:00,80.1,65.9,29.73,South,178,0.0,0.0,62,0.00,,,0.00,265,Wunderground v.1.15,2013-07-05 18:00:00,
2013-07-05 13:10:00,80.6,67.7,29.73,South,178,0.0,0.0,65,0.00,,,0.00,279,Wunderground v.1.15,2013-07-05 18:10:00,
2013-07-05 13:19:00,80.8,66.1,29.73,SSW,198,0.0,3.0,61,0.00,,,0.00,258,Wunderground v.1.15,2013-07-05 18:19:00,
2013-07-05 13:29:00,80.8,66.6,29.73,SE,138,0.0,0.0,62,0.00,,,0.00,287,Wunderground v.1.15,2013-07-05 18:29:00,
2013-07-05 13:35:00,81.0,66.8,29.73,SE,138,0.0,0.0,62,0.00,,,0.00,357,Wunderground v.1.15,2013-07-05 18:35:00,
2013-07-05 13:44:00,82.1,67.3,29.73,East,96,0.0,1.0,61,0.00,,,0.00,399,Wunderground v.1.15,2013-07-05 18:44:00,
2013-07-05 13:54:00,83.0,68.2,29.73,ESE,115,0.0,0.0,61,0.00,,,0.00,475,Wunderground v.1.15,2013-07-05 18:54:00,
2013-07-05 14:05:00,84.1,66.2,29.72,SE,135,1.0,3.0,55,0.00,,,0.00,870,Wunderground v.1.15,2013-07-05 19:05:00,
2013-07-05 14:10:00,83.9,67.0,29.72,East,94,1.0,1.0,57,0.00,,,0.00,394,Wunderground v.1.15,2013-07-05 19:10:00,
2013-07-05 14:20:00,83.2,67.4,29.72,SE,124,1.0,1.0,59,0.00,,,0.00,403,Wunderground v.1.15,2013-07-05 19:20:00,
2013-07-05 14:30:00,83.8,67.9,29.71,ESE,111,0.0,0.0,59,0.00,,,0.00,383,Wunderground v.1.15,2013-07-05 19:30:00,
2013-07-05 14:39:00,83.3,66.5,29.71,SE,127,1.0,1.0,57,0.00,,,0.00,417,Wunderground v.1.15,2013-07-05 19:39:00,
2013-07-05 14:45:00,83.5,66.7,29.71,ESE,115,1.0,1.0,57,0.00,,,0.00,570,Wunderground v.1.15,2013-07-05 19:45:00,
2013-07-05 14:50:00,83.8,65.9,29.71,ESE,121,1.0,2.0,55,0.00,,,0.00,329,Wunderground v.1.15,2013-07-05 19:50:00,
2013-07-05 14:59:00,83.5,66.2,29.71,ESE,115,1.0,1.0,56,0.00,,,0.00,323,Wunderground v.1.15,2013-07-05 19:59:00,
2013-07-05 15:04:00,83.4,65.0,29.71,SE,140,1.0,1.0,54,0.00,,,0.00,316,Wunderground v.1.15,2013-07-05 20:04:00,
2013-07-05 15:15:00,83.7,66.3,29.71,South,175,1.0,1.0,56,0.00,,,0.00,439,Wunderground v.1.15,2013-07-05 20:15:00,
2013-07-05 15:25:00,84.2,66.3,29.71,SE,124,1.0,1.0,55,0.00,,,0.00,657,Wunderground v.1.15,2013-07-05 20:25:00,
2013-07-05 15:34:00,85.5,67.0,29.71,ESE,110,0.0,1.0,54,0.00,,,0.00,923,Wunderground v.1.15,2013-07-05 20:34:00,
2013-07-05 15:39:00,84.9,66.9,29.71,ESE,113,1.0,1.0,55,0.00,,,0.00,455,Wunderground v.1.15,2013-07-05 20:39:00,
2013-07-05 15:45:00,85.3,67.8,29.70,East,90,1.0,1.0,56,0.00,,,0.00,752,Wunderground v.1.15,2013-07-05 20:45:00,
2013-07-05 15:50:00,85.0,67.5,29.70,SE,134,1.0,1.0,56,0.00,,,0.00,485,Wunderground v.1.15,2013-07-05 20:50:00,
2013-07-05 15:55:00,84.9,66.9,29.70,SE,133,1.0,3.0,55,0.00,,,0.00,376,Wunderground v.1.15,2013-07-05 20:55:00,
2013-07-05 16:05:00,85.5,68.5,29.70,SE,134,0.0,0.0,57,0.00,,,0.00,650,Wunderground v.1.15,2013-07-05 21:05:00,
2013-07-05 16:14:00,84.9,67.5,29.70,SE,124,1.0,1.0,56,0.00,,,0.00,325,Wunderground v.1.15,2013-07-05 21:14:00,
2013-07-05 16:20:00,85.0,68.1,29.70,ESE,123,1.0,1.0,57,0.00,,,0.00,571,Wunderground v.1.15,2013-07-05 21:20:00,
2013-07-05 16:30:00,85.1,67.1,29.70,ESE,115,1.0,1.0,55,0.00,,,0.00,445,Wunderground v.1.15,2013-07-05 21:30:00,
2013-07-05 16:40:00,85.1,68.2,29.70,SSW,203,1.0,1.0,57,0.00,,,0.00,327,Wunderground v.1.15,2013-07-05 21:40:00,
2013-07-05 16:49:00,85.1,67.6,29.70,SE,128,1.0,1.0,56,0.00,,,0.00,436,Wunderground v.1.15,2013-07-05 21:49:00,
2013-07-05 16:55:00,85.4,67.4,29.70,ESE,123,1.0,1.0,55,0.00,,,0.00,367,Wunderground v.1.15,2013-07-05 21:55:00,
2013-07-05 17:05:00,84.8,67.9,29.70,South,182,1.0,1.0,57,0.00,,,0.00,236,Wunderground v.1.15,2013-07-05 22:05:00,
2013-07-05 17:14:00,84.5,67.6,29.69,South,180,1.0,1.0,57,0.00,,,0.00,237,Wunderground v.1.15,2013-07-05 22:14:00,
2013-07-05 17:24:00,84.6,67.7,29.69,ESE,116,1.0,1.0,57,0.00,,,0.00,397,Wunderground v.1.15,2013-07-05 22:24:00,
2013-07-05 17:35:00,84.7,67.8,29.69,ESE,121,1.0,2.0,57,0.00,,,0.00,425,Wunderground v.1.15,2013-07-05 22:35:00,
2013-07-05 17:45:00,84.7,68.8,29.69,SE,136,0.0,4.0,59,0.00,,,0.00,394,Wunderground v.1.15,2013-07-05 22:45:00,
2013-07-05 17:54:00,84.8,67.4,29.69,SE,136,1.0,1.0,56,0.00,,,0.00,396,Wunderground v.1.15,2013-07-05 22:54:00,
2013-07-05 17:59:00,84.9,68.0,29.68,SE,125,1.0,1.0,57,0.00,,,0.00,352,Wunderground v.1.15,2013-07-05 22:59:00,
2013-07-05 18:05:00,84.7,67.8,29.68,SE,125,0.0,1.0,57,0.00,,,0.00,243,Wunderground v.1.15,2013-07-05 23:05:00,
2013-07-05 18:10:00,84.5,67.6,29.68,ESE,106,0.0,0.0,57,0.00,,,0.00,292,Wunderground v.1.15,2013-07-05 23:10:00,
2013-07-05 18:20:00,84.9,68.0,29.67,ESE,110,0.0,0.0,57,0.00,,,0.00,392,Wunderground v.1.15,2013-07-05 23:20:00,
2013-07-05 18:25:00,84.8,67.9,29.67,SE,124,0.0,0.0,57,0.00,,,0.00,250,Wunderground v.1.15,2013-07-05 23:25:00,
2013-07-05 18:30:00,84.6,67.2,29.67,SE,124,1.0,1.0,56,0.00,,,0.00,221,Wunderground v.1.15,2013-07-05 23:30:00,
2013-07-05 18:40:00,84.5,67.6,29.67,ESE,107,1.0,1.0,57,0.00,,,0.00,232,Wunderground v.1.15,2013-07-05 23:40:00,
2013-07-05 18:49:00,84.5,66.6,29.67,SE,141,0.0,0.0,55,0.00,,,0.00,267,Wunderground v.1.15,2013-07-05 23:49:00,
2013-07-05 18:55:00,84.6,66.7,29.67,SE,128,1.0,1.0,55,0.00,,,0.00,325,Wunderground v.1.15,2013-07-05 23:55:00,
2013-07-05 19:05:00,84.6,66.1,29.67,East,101,1.0,1.0,54,0.00,,,0.00,225,Wunderground v.1.15,2013-07-06 00:05:00,
2013-07-05 19:14:00,84.5,66.6,29.67,East,100,0.0,0.0,55,0.00,,,0.00,308,Wunderground v.1.15,2013-07-06 00:14:00,
2013-07-05 19:25:00,84.2,66.8,29.67,SE,128,0.0,2.0,56,0.00,,,0.00,221,Wunderground v.1.15,2013-07-06 00:25:00,
2013-07-05 19:30:00,84.3,66.4,29.67,SE,129,0.0,0.0,55,0.00,,,0.00,125,Wunderground v.1.15,2013-07-06 00:30:00,
2013-07-05 19:40:00,84.1,66.2,29.67,SE,129,0.0,0.0,55,0.00,,,0.00,98,Wunderground v.1.15,2013-07-06 00:40:00,
2013-07-05 19:49:00,83.8,66.4,29.67,SE,130,0.0,0.0,56,0.00,,,0.00,63,Wunderground v.1.15,2013-07-06 00:49:00,
2013-07-05 19:59:00,83.4,67.1,29.68,SE,130,0.0,0.0,58,0.00,,,0.00,49,Wunderground v.1.15,2013-07-06 00:59:00,
2013-07-05 20:05:00,83.1,67.3,29.68,SE,130,0.0,0.0,59,0.00,,,0.00,44,Wunderground v.1.15,2013-07-06 01:05:00,
2013-07-05 20:15:00,82.6,67.3,29.69,SE,132,0.0,0.0,60,0.00,,,0.00,32,Wunderground v.1.15,2013-07-06 01:15:00,
2013-07-05 20:24:00,82.4,67.6,29.69,ESE,111,0.0,0.0,61,0.00,,,0.00,21,Wunderground v.1.15,2013-07-06 01:24:00,
2013-07-05 20:34:00,81.9,67.1,29.69,ESE,104,0.0,0.0,61,0.00,,,0.00,14,Wunderground v.1.15,2013-07-06 01:34:00,
2013-07-05 20:40:00,81.7,66.9,29.69,ESE,104,0.0,0.0,61,0.00,,,0.00,11,Wunderground v.1.15,2013-07-06 01:40:00,
2013-07-05 20:50:00,81.3,66.6,29.69,East,96,0.0,0.0,61,0.00,,,0.00,5,Wunderground v.1.15,2013-07-06 01:50:00,
2013-07-05 20:59:00,80.9,66.7,29.68,East,96,0.0,0.0,62,0.00,,,0.00,0,Wunderground v.1.15,2013-07-06 01:59:00,
2013-07-05 21:09:00,80.3,66.6,29.68,East,96,0.0,0.0,63,0.00,,,0.00,0,Wunderground v.1.15,2013-07-06 02:09:00,
2013-07-05 21:20:00,80.0,66.3,29.69,East,96,0.0,0.0,63,0.00,,,0.00,0,Wunderground v.1.15,2013-07-06 02:20:00,
2013-07-05 21:29:00,79.6,66.3,29.69,ESE,121,0.0,0.0,64,0.00,,,0.00,0,Wunderground v.1.15,2013-07-06 02:29:00,
2013-07-05 21:39:00,79.3,66.5,29.69,ESE,121,0.0,0.0,65,0.00,,,0.00,0,Wunderground v.1.15,2013-07-06 02:39:00,
2013-07-05 21:50:00,78.7,66.4,29.69,ESE,121,0.0,0.0,66,0.00,,,0.00,0,Wunderground v.1.15,2013-07-06 02:50:00,
2013-07-05 22:00:00,78.3,66.4,29.69,ESE,121,0.0,0.0,67,0.00,,,0.00,0,Wunderground v.1.15,2013-07-06 03:00:00,
2013-07-05 22:05:00,78.2,66.3,29.69,ESE,121,0.0,0.0,67,0.00,,,0.00,0,Wunderground v.1.15,2013-07-06 03:05:00,
2013-07-05 22:14:00,77.7,66.3,29.70,ESE,121,0.0,0.0,68,0.00,,,0.00,0,Wunderground v.1.15,2013-07-06 03:14:00,
2013-07-05 22:25:00,77.4,66.0,29.70,ESE,121,0.0,0.0,68,0.00,,,0.00,0,Wunderground v.1.15,2013-07-06 03:25:00,
2013-07-05 22:35:00,77.3,65.9,29.70,ESE,121,0.0,0.0,68,0.00,,,0.00,0,Wunderground v.1.15,2013-07-06 03:35:00,
2013-07-05 22:45:00,77.1,65.7,29.70,ESE,121,0.0,0.0,68,0.00,,,0.00,0,Wunderground v.1.15,2013-07-06 03:45:00,
2013-07-05 22:54:00,76.9,65.5,29.70,ESE,121,0.0,0.0,68,0.00,,,0.00,0,Wunderground v.1.15,2013-07-06 03:54:00,
2013-07-05 23:04:00,76.6,65.2,29.70,ESE,121,0.0,0.0,68,0.00,,,0.00,0,Wunderground v.1.15,2013-07-06 04:04:00,
2013-07-05 23:10:00,76.5,65.1,29.70,ESE,121,0.0,0.0,68,0.00,,,0.00,0,Wunderground v.1.15,2013-07-06 04:10:00,
2013-07-05 23:15:00,76.4,65.1,29.70,ESE,121,0.0,0.0,68,0.00,,,0.00,0,Wunderground v.1.15,2013-07-06 04:15:00,
2013-07-05 23:25:00,76.2,64.9,29.70,ESE,121,0.0,0.0,68,0.00,,,0.00,0,Wunderground v.1.15,2013-07-06 04:25:00,
2013-07-05 23:34:00,76.0,64.7,29.71,ESE,121,0.0,0.0,68,0.00,,,0.00,0,Wunderground v.1.15,2013-07-06 04:34:00,
2013-07-05 23:44:00,75.7,64.8,29.70,ESE,121,0.0,0.0,69,0.00,,,0.00,0,Wunderground v.1.15,2013-07-06 04:44:00,
2013-07-05 23:50:00,75.6,64.7,29.70,ESE,121,0.0,0.0,69,0.00,,,0.00,0,Wunderground v.1.15,2013-07-06 04:50:00,